Location: Madrona
(40.9010°N, 4.1749°W)
Time: 10:16:43
(UTC+00:00)

Daily predictions for brighter satellites

Satellite Brightness Start Highest point End
(mag) Time Altitude Azimuth Time Altitude Azimuth Time Altitude Azimuth
Cosmos 2098 Rocket 3.2 19:56:40 10° SSE 19:59:31 32° E 20:02:51 10° NNE
Ariane Rocket 3.5 20:01:06 10° SE 20:05:51 43° ENE 20:10:38 10° N
Cosmos 1842 Rocket 3.6 20:04:29 10° N 20:09:00 79° E 20:13:28 10° S
Cosmos 2082 Rocket 2.8 20:04:24 10° SW 20:09:58 63° WNW 20:15:37 10° NNE
SL-19 R/B 4.3 20:11:41 10° SSE 20:15:20 88° ENE 20:19:36 10° NNW
Cosmos 2279 Rocket 4.3 20:09:13 10° N 20:15:24 75° W 20:21:34 10° S
ATLAS 2AS CENTAUR R/B 4.3 20:11:00 10° WSW 20:18:30 45° NW 20:25:52 10° NNE
Cosmos 2278 3.7 20:13:36 10° NNW 20:19:18 82° ENE 20:24:58 10° SSE
Cosmos 2360 Rocket 4.1 20:16:21 10° NNE 20:19:33 15° NE 20:22:44 10° E
Resurs 1-3 3.7 20:15:18 10° SSE 20:19:37 63° ENE 20:23:58 10° N
ATLAS 3B R/B 2.9 20:12:39 10° NNW 20:19:50 80° NE 20:27:16 10° SE
Cosmos 1606 2.6 20:17:16 10° N 20:21:04 86° E 20:24:52 10° S
Cosmos 1092 Rocket 4.5 20:18:41 10° SSE 20:24:29 42° E 20:30:21 10° NNE
Atlas Centaur 2 3.2 20:21:20 10° WSW 20:24:54 20° S 20:27:39 12° SSE
Cosmos 2221 3.2 20:24:20 10° NNW 20:28:34 57° W 20:32:49 10° S
NOSS 2-1 (C) 4.1 20:26:14 10° S 20:28:57 22° ESE 20:31:31 10° ENE
SJ-6B 3.5 20:25:31 10° S 20:29:07 50° W 20:32:45 10° NNW
Cosmos 2151 3.1 20:25:15 10° S 20:29:21 53° E 20:33:31 10° NNE
ISS -3.8 20:26:18 10° NW 20:29:42 90° SE 20:32:13 17° SE
Cosmos 2084 3.8 20:30:35 10° S 20:34:18 37° ESE 20:38:07 10° NE
Cosmos 158 Rocket 4.0 20:30:38 10° SSW 20:35:47 87° ESE 20:41:06 10° NNE
ERS-2 2.0 20:32:42 10° NNE 20:36:20 69° ESE 20:39:56 10° S
NOSS 2-1 (D) 3.8 20:33:42 10° S 20:36:40 27° ESE 20:39:29 10° ENE
Cosmos 923 Rocket 4.1 20:34:25 10° S 20:39:37 56° ESE 20:44:50 10° NNE
Cosmos 2333 Rocket 4.4 20:38:36 10° NNE 20:40:21 11° NE 20:42:05 10° ENE
BREEZE-M DEB (TANK) 3.9 20:38:20 10° NW 20:41:35 60° NNE 20:49:45 13° ESE
Cosmos 1980 Rocket 2.9 20:36:09 10° NNW 20:41:37 52° WSW 20:47:04 10° S
Nadezhda 4 Rocket 4.1 20:35:27 10° S 20:41:37 85° W 20:47:54 10° N
GP-B 4.2 20:38:08 10° NNE 20:41:53 26° E 20:44:01 18° SE
SPOT 1/Viking Rocket 4.2 20:38:27 16° SE 20:42:11 38° ENE 20:47:00 10° N
Helios 1A Rocket 4.2 20:39:30 10° S 20:43:18 39° W 20:47:09 10° NNW
SL-27 R/B 4.3 20:44:41 16° E 20:44:41 16° E 20:46:40 10° ENE
Meteor 2-15 4.4 20:39:16 10° N 20:45:21 73° E 20:51:14 11° SSE
Cosmos 371 Rocket 3.7 20:45:10 10° NNW 20:49:55 61° WSW 20:54:34 10° S
USA 276 2.4 20:48:31 10° NW 20:51:38 58° NNE 20:53:10 26° E
Cosmos 2322 Rocket 2.8 20:49:13 10° N 20:54:35 42° ENE 20:57:55 21° ESE
Meteor 1-26 Rocket 4.3 20:54:15 10° N 21:00:06 64° ENE 21:04:07 20° SSE
Cosmos 1428 Rocket 4.4 20:54:56 10° S 21:00:59 66° E 21:07:02 10° NNE
Meteor 2-15 Rocket 4.4 20:58:54 10° N 21:05:01 81° E 21:09:52 17° S
Spot 2 Rocket 4.1 21:03:04 24° ESE 21:05:37 40° ENE 21:10:23 10° N
Cosmos 2219 Rocket 4.2 21:08:17 10° NNE 21:11:32 15° NE 21:14:26 11° E
Resurs 01 Rocket 2.0 21:08:51 16° S 21:12:19 62° W 21:16:45 10° NNW
BREEZE M DEB (TANK) 3.1 21:09:52 10° SW 21:12:48 66° SE 21:26:46 10° ENE
Cosmos 1680 Rocket 3.4 21:08:16 10° SSW 21:13:34 85° ESE 21:18:50 10° NNE
Cosmos 2112 Rocket 3.9 21:08:48 10° S 21:14:04 73° ESE 21:19:20 10° NNE
Terra 3.1 21:19:00 23° E 21:20:17 26° ENE 21:24:12 10° NNE
Cosmos 1151 Rocket 3.1 21:15:58 10° N 21:20:17 59° E 21:21:47 37° SE
Cosmos 1553 Rocket 4.2 21:17:46 10° N 21:23:41 51° ENE 21:26:24 31° SE
SL-16 R/B 2.2 21:19:40 10° NNW 21:25:22 84° WSW 21:28:19 30° SSE
SPOT 3 Rocket 3.9 21:22:22 20° S 21:26:02 64° WSW 21:31:14 10° NNW
Meteor 2-3 Rocket 4.4 21:22:10 10° SSW 21:27:42 56° WNW 21:33:22 10° N
Cosmos 1809 Rocket 4.4 21:23:27 20° S 21:27:50 71° E 21:33:57 10° NNE
ATLAS 5 CENTAUR R/B 4.3 21:25:24 10° N 21:28:57 17° NE 21:32:50 10° ENE
CZ-2C R/B 3.7 21:24:59 10° N 21:29:30 81° WNW 21:32:44 18° SSW
Cosmos 1766 Rocket 3.4 21:27:54 28° S 21:30:13 88° E 21:34:37 10° N
Cosmos 1933 4.4 21:26:25 10° NNW 21:30:15 42° W 21:32:41 20° SSW
Cosmos 1271 Rocket 3.5 21:27:01 10° NNW 21:30:55 51° W 21:32:51 26° SSW
Cosmos 1328 Rocket 3.6 21:29:41 10° N 21:34:07 64° E 21:35:09 47° SE
NOSS 2-1 (E) 3.1 21:31:28 10° SW 21:34:48 66° NW 21:38:06 10° NNE
Cosmos 2237 4.2 21:29:50 10° NNW 21:35:33 69° ENE 21:37:46 38° SE
SPOT 5 2.9 21:36:48 44° ESE 21:37:36 51° ENE 21:41:52 10° N
ARIANE 5 R/B 2.7 21:36:31 47° SE 21:37:38 65° ENE 21:42:03 10° N
COSMOS 2428 4.4 21:35:09 10° N 21:39:21 21° NE 21:41:31 17° E
Cosmos 1862 3.2 21:39:48 61° SE 21:40:10 65° E 21:44:07 10° NNE
Gbstr 26 Del rocket 2.7 21:36:30 10° WNW 21:40:14 65° SW 21:40:43 58° S
Cosmos 1782 3.5 21:42:07 10° NNW 21:45:59 49° W 21:47:19 34° SW
Cosmos 292 Rocket 4.3 21:41:51 10° N 21:46:24 43° ENE 21:47:10 40° E
Meteor 2-6 Rocket 4.0 21:45:03 10° N 21:50:28 76° E 21:52:01 47° SSE
Cosmos 1417 Rocket 4.5 21:45:13 10° N 21:51:32 71° E 21:53:45 42° SSE
Meteor 2-21 Rocket 4.4 21:50:11 37° SSE 21:52:45 71° E 21:58:53 10° NNE
Cosmos 220 Rocket 4.2 21:50:07 10° NNW 21:54:27 65° WSW 21:55:15 53° SSW
Cosmos 1624 Rocket 3.9 21:49:51 10° NNW 21:55:05 90° NE 21:56:24 52° SSE
S3M 4.1 21:49:32 10° N 21:55:53 63° E 21:57:51 44° SE
Cosmos 1655 Rocket 4.1 21:54:13 41° SSE 21:56:17 61° E 22:02:35 10° NNE
Meteor 2-21 4.5 21:54:26 26° SSW 21:58:10 80° W 22:04:21 10° N
Cosmos 972 Rocket 4.5 21:59:17 42° E 21:59:17 42° E 22:03:49 10° NNE
Cosmos 1420 Rocket 4.0 21:58:12 10° NNW 22:03:32 71° ENE 22:04:27 58° SE
Cosmos 2360 Rocket 2.1 21:58:41 10° NNW 22:04:21 90° ENE 22:05:41 55° SSE
Cosmos 1500 Rocket 3.7 22:11:54 59° ENE 22:11:54 59° ENE 22:15:50 10° NNE
Cosmos 1812 3.6 22:11:50 10° NNW 22:15:30 43° W 22:15:34 43° W
USA 267 3.6 22:09:27 10° ENE 22:14:48 41° ESE 22:14:48 41° ESE
SL-27 R/B 4.4 22:18:07 24° W 22:19:11 29° WNW 22:22:23 10° N
COSMOS 2455 2.7 22:17:53 42° SSW 22:20:04 85° ESE 22:26:08 10° NNE
ERS-1 Rocket 3.3 22:20:25 49° SW 22:21:21 57° W 22:26:18 10° NNW
Meteor 1-27 Rocket 3.7 22:19:28 10° N 22:25:09 70° E 22:25:47 64° ESE
Cosmos 2333 Rocket 2.2 22:20:08 10° NNW 22:25:46 65° ENE 22:26:23 60° E
Cosmos 1452 Rocket 3.7 22:20:53 10° N 22:26:04 56° ENE 22:26:16 55° ENE
H-2A R/B 3.9 22:23:42 10° NNE 22:27:05 56° NNE 22:27:05 56° NNE
BREEZE-M R/B 3.1 22:24:13 10° WSW 22:31:56 12° ENE 22:32:14 10° ENE
Cosmos 1408 Rocket 4.5 22:27:58 38° WSW 22:28:44 42° WNW 22:32:52 10° N
Cosmos 2297 Rocket 4.2 22:32:07 15° ENE 22:32:07 15° ENE 22:33:37 10° ENE
Cosmos 1743 Rocket 3.7 22:32:53 71° NW 22:32:53 71° NW 22:36:59 10° N
Sich 1 4.3 22:34:10 32° NE 22:34:10 32° NE 22:36:49 10° NNE
Cosmos 2322 3.6 22:27:11 10° NNW 22:32:55 71° ENE 22:33:25 67° ESE
Cosmos 2056 Rocket 4.4 22:30:54 10° NW 22:35:48 39° WSW 22:36:36 36° WSW
BREEZE-M DEB (TANK) 4.0 22:32:02 10° WNW 22:36:19 46° SSW 22:37:19 43° S
Cosmos 2237 Rocket 3.9 22:33:52 10° N 22:38:13 22° NE 22:39:29 20° ENE
Cosmos 2322 Rocket 3.6 22:33:44 10° NW 22:38:21 27° WSW 22:39:44 24° SW
Cosmos 2227 Rocket 4.3 22:44:31 13° ENE 22:44:31 13° ENE 22:45:40 10° ENE
BREEZE-M DEB (TANK) 3.8 22:38:55 10° NW 22:42:20 31° NNW 22:42:20 31° NNW
IRIDIUM 104 4.3 22:47:30 10° N 22:52:31 81° NNW 22:52:31 81° NNW
Cosmos 2219 Rocket 2.1 22:50:38 10° NNW 22:56:08 85° WNW 22:56:08 85° WNW
Terra 3.0 22:57:54 33° W 22:57:54 33° W 23:02:10 10° NNW
IRIDIUM 114 4.4 22:56:40 10° N 23:01:38 70° WNW 23:01:38 70° WNW
Meteor 1-25 Rocket 4.1 23:06:07 80° NNE 23:06:07 80° NNE 23:11:24 10° N
Cosmos 489 Rocket 4.5 23:06:28 66° SW 23:07:20 77° WNW 23:13:43 10° NNE
SL-16 R/B 4.5 23:04:27 10° NNE 23:07:24 14° NE 23:09:38 12° ENE
Cosmos 2285 Rocket 3.9 23:04:37 10° NNW 23:10:55 74° WSW 23:11:08 73° SW
Cosmos 494 Rocket 4.3 23:12:47 63° NNW 23:12:47 63° NNW 23:17:24 10° NNE
Cosmos 2228 Rocket 4.3 23:09:31 10° NNW 23:12:46 39° NW 23:12:46 39° NW
ATLAS 5 CENTAUR R/B 2.4 23:08:40 10° NNW 23:14:24 73° NE 23:14:35 72° ENE
Cosmos 2315 Rocket 4.2 23:08:57 10° NNW 23:15:10 60° W 23:15:47 57° WSW
SL-08 ROCKET BODY 4.4 23:19:01 71° ENE 23:19:01 71° ENE 23:24:48 10° NNE
COSMOS 2428 3.0 23:18:28 10° NNW 23:23:31 60° WNW 23:23:31 60° WNW
Meteor 2-4 Rocket 4.4 23:19:38 10° N 23:24:59 47° ENE 23:24:59 47° ENE
Meteor 1-19 Rocket 4.3 23:23:44 10° N 23:28:36 69° N 23:28:36 69° N
ALOS 2 4.0 23:36:46 37° N 23:36:46 37° N 23:39:32 10° N
Cosmos 1745 Rocket 4.2 23:39:17 61° ENE 23:39:17 61° ENE 23:44:59 10° NNE
Cosmos 2219 3.9 23:42:23 46° NE 23:42:23 46° NE 23:46:36 10° NNE
Meteor 1-14 Rocket 4.5 23:51:46 65° N 23:51:46 65° N 23:56:34 10° N
USA 229 DEB 4.1 23:44:36 10° NW 23:51:51 56° WSW 23:51:52 56° WSW
USA 229 4.1 23:44:41 10° NW 23:51:57 57° WSW 23:51:58 57° WSW
